WX4MMM Weather Reports


Display with metric or nautical units.
time (UTC)temp
F
wind
direction
speed
MPH
gust
MPH
rain 1hr
in
rain 24hr
in
rain mn
in
humidity
%
barometer
mb
20260905131503 79 240 1.0 1.0 0.00 0.00 0.00 84 1012.0
20260905131003 79 310 1.0 2.0 0.00 0.00 0.00 85 1012.1
20260905130503 79 218 1.0 3.0 0.00 0.00 0.00 85 1012.2
20260905130003 78 156 1.0 2.0 0.00 0.00 0.00 86 1012.1
20260905125504 78 57 0.0 2.0 0.00 0.00 0.00 87 1012.3
20260905125004 77 100 1.0 2.0 0.00 0.00 0.00 87 1012.2
20260905124003 76 298 1.0 2.0 0.00 0.00 0.00 89 1012.2
20260905123003 75 185 0.0 2.0 0.00 0.00 0.00 92 1012.3
20260905122004 74 36 0.0 1.0 0.00 0.00 0.00 94 1012.3
20260905121503 73 20 1.0 1.0 0.00 0.00 0.00 94 1012.3
20260905120503 73 16 0.0 1.0 0.00 0.00 0.00 95 1012.3
20260905120003 73 106 0.0 0.0 0.00 0.00 0.00 95 1012.2
20260905115503 72 106 0.0 0.0 0.00 0.00 0.00 96 1012.1
20260905115003 72 106 0.0 0.0 0.00 0.00 0.00 96 1012.1
20260905114505 72 159 0.0 1.0 0.00 0.00 0.00 96 1012.0
20260905114003 72 170 0.0 1.0 0.00 0.00 0.00 96 1012.0
20260905113503 72 261 0.0 0.0 0.00 0.00 0.00 96 1012.1
20260905112502 72 324 0.0 0.0 0.00 0.00 0.00 96 1011.9
20260905112004 72 324 0.0 1.0 0.00 0.00 0.00 96 1011.9
20260905111003 72 183 0.0 0.0 0.00 0.00 0.00 96 1011.7
20260905105503 72 36 0.0 0.0 0.00 0.00 0.00 95 1011.7
20260905105004 72 36 0.0 0.0 0.00 0.00 0.00 95 1011.6
20260905104503 72 36 0.0 0.0 0.00 0.00 0.00 95 1011.6
20260905104003 72 36 0.0 1.0 0.00 0.00 0.00 95 1011.6
20260905103504 72 229 1.0 2.0 0.00 0.00 0.00 95 1011.6
20260905103003 72 9 1.0 2.0 0.00 0.00 0.00 95 1011.5
20260905102003 72 75 0.0 0.0 0.00 0.00 0.00 95 1011.5
20260905101004 72 33 0.0 0.0 0.00 0.00 0.00 94 1011.4
20260905100504 73 33 0.0 0.0 0.00 0.00 0.00 94 1011.4
20260905100002 73 33 0.0 1.0 0.00 0.00 0.00 94 1011.3
20260905095504 73 76 0.0 0.0 0.00 0.00 0.00 93 1011.3
20260905095003 73 46 0.0 0.0 0.00 0.00 0.00 93 1011.4
20260905094005 73 9 0.0 0.0 0.00 0.00 0.00 93 1011.4
20260905093503 73 9 0.0 0.0 0.00 0.00 0.00 92 1011.4
20260905092504 73 9 0.0 0.0 0.00 0.00 0.00 92 1011.4
20260905092003 73 9 0.0 0.0 0.00 0.00 0.00 91 1011.4
20260905091502 74 9 0.0 0.0 0.00 0.00 0.00 91 1011.4
20260905091005 74 9 0.0 0.0 0.00 0.00 0.00 91 1011.4
20260905090504 74 9 0.0 0.0 0.00 0.00 0.00 91 1011.6
20260905090003 74 9 0.0 0.0 0.00 0.00 0.00 90 1011.6
20260905085504 74 9 0.0 0.0 0.00 0.00 0.00 90 1011.6
20260905085003 74 9 0.0 0.0 0.00 0.00 0.00 90 1011.7
20260905084503 74 9 0.0 0.0 0.00 0.00 0.00 89 1011.7
20260905084004 74 9 0.0 0.0 0.00 0.00 0.00 89 1011.7
20260905083503 74 9 0.0 1.0 0.00 0.00 0.00 89 1011.8
20260905083003 74 355 0.0 1.0 0.00 0.00 0.00 89 1011.8
20260905082503 74 291 0.0 0.0 0.00 0.00 0.00 89 1011.8
20260905082003 74 291 0.0 0.0 0.00 0.00 0.00 89 1011.9
20260905081005 75 291 0.0 0.0 0.00 0.00 0.00 88 1012.0
20260905080503 75 291 0.0 0.0 0.00 0.00 0.00 88 1012.1
20260905080003 75 291 0.0 0.0 0.00 0.00 0.00 88 1012.1
20260905075003 75 286 0.0 0.0 0.00 0.00 0.00 87 1012.2
20260905074003 75 286 0.0 1.0 0.00 0.00 0.00 86 1012.2
20260905073503 76 15 0.0 1.0 0.00 0.00 0.00 86 1012.3
20260905073003 76 208 0.0 1.0 0.00 0.00 0.00 86 1012.3
20260905072503 76 299 0.0 1.0 0.00 0.00 0.00 85 1012.3
20260905071503 76 178 0.0 0.0 0.00 0.00 0.00 85 1012.4
20260905070503 76 180 1.0 2.0 0.00 0.00 0.00 85 1012.4
20260905070005 76 309 0.0 0.0 0.00 0.00 0.00 85 1012.5
20260905065503 76 309 0.0 0.0 0.00 0.00 0.00 84 1012.5
20260905065003 76 309 0.0 0.0 0.00 0.00 0.00 84 1012.7
20260905064503 76 168 0.0 0.0 0.00 0.00 0.00 84 1012.8
20260905064003 76 168 0.0 0.0 0.00 0.00 0.00 84 1012.8
20260905063503 76 168 0.0 0.0 0.00 0.00 0.00 83 1012.8
20260905063004 77 168 0.0 0.0 0.00 0.00 0.00 83 1012.9
20260905062503 77 168 0.0 1.0 0.00 0.00 0.00 83 1013.0
20260905062004 77 152 0.0 1.0 0.00 0.00 0.00 83 1013.0
20260905061504 77 181 0.0 1.0 0.00 0.00 0.00 83 1013.1
20260905061004 77 165 0.0 1.0 0.00 0.00 0.00 83 1013.2
20260905060503 77 162 0.0 0.0 0.00 0.00 0.00 83 1013.2
20260905055003 77 164 0.0 0.0 0.00 0.00 0.00 83 1013.5
20260905054503 77 166 0.0 1.0 0.00 0.00 0.00 83 1013.6
20260905053503 77 200 0.0 1.0 0.00 0.00 0.00 83 1013.6
20260905053004 77 338 0.0 0.0 0.00 0.00 0.00 83 1013.7
20260905052503 77 338 0.0 1.0 0.00 0.00 0.00 83 1013.8
20260905052003 77 152 0.0 0.0 0.00 0.00 0.00 83 1013.9
20260905051503 78 152 0.0 0.0 0.00 0.00 0.00 82 1013.9
20260905051004 78 152 1.0 1.0 0.00 0.00 0.00 82 1014.0
20260905050004 78 130 0.0 1.0 0.00 0.00 0.00 81 1014.2
20260905045504 78 102 0.0 1.0 0.00 0.00 0.00 81 1014.2
20260905045003 78 288 0.0 2.0 0.00 0.00 0.00 81 1014.3
20260905044503 78 346 0.0 2.0 0.00 0.00 0.00 81 1014.4
20260905043503 78 246 2.0 2.0 0.00 0.00 0.00 82 1014.5
20260905043003 78 206 1.0 2.0 0.00 0.00 0.00 82 1014.5
20260905042504 78 149 1.0 3.0 0.00 0.00 0.00 83 1014.5
20260905042004 78 194 1.0 3.0 0.00 0.00 0.00 84 1014.6
20260905041505 78 200 1.0 2.0 0.00 0.00 0.00 84 1014.5
20260905041003 78 195 0.0 1.0 0.00 0.00 0.00 84 1014.5
20260905040504 78 251 1.0 2.0 0.00 0.00 0.00 84 1014.5
20260905035004 78 184 0.0 0.0 0.00 0.00 0.00 84 1014.5
20260905034503 78 184 1.0 2.0 0.00 0.00 0.00 84 1014.5
20260905034005 78 252 0.0 1.0 0.00 0.00 0.00 84 1014.4
20260905033504 78 147 1.0 3.0 0.00 0.00 0.00 83 1014.6
20260905032503 78 220 1.0 1.0 0.00 0.00 0.00 83 1014.5
20260905032003 78 229 1.0 2.0 0.00 0.00 0.00 82 1014.5
20260905031503 78 312 0.0 1.0 0.00 0.00 0.00 82 1014.5
20260905031003 78 183 1.0 2.0 0.00 0.00 0.00 82 1014.5
20260905030503 78 280 0.0 1.0 0.00 0.00 0.00 82 1014.5
20260905025504 79 157 1.0 3.0 0.00 0.00 0.00 81 1014.7
20260905025005 79 222 1.0 2.0 0.00 0.00 0.00 81 1014.6
20260905024505 79 258 1.0 2.0 0.00 0.00 0.00 81 1014.7
20260905024004 79 18 0.0 2.0 0.00 0.00 0.00 80 1014.8
20260905023507 80 189 2.0 2.0 0.00 0.00 0.00 80 1014.7
20260905023004 80 235 1.0 2.0 0.00 0.00 0.00 79 1014.8
20260905022004 81 284 2.0 3.0 0.00 0.00 0.00 78 1014.9
20260905021503 81 210 2.0 3.0 0.00 0.00 0.00 77 1014.8
20260905021003 82 219 0.0 1.0 0.00 0.00 0.00 77 1014.8
20260905020503 82 174 2.0 3.0 0.00 0.00 0.00 76 1014.7
20260905020003 83 197 1.0 2.0 0.00 0.00 0.00 75 1014.5
20260905015504 83 112 1.0 6.0 0.00 0.00 0.00 73 1014.4
20260905015004 84 219 1.0 6.0 0.00 0.00 0.00 71 1014.3
20260905014504 84 23 0.0 1.0 0.00 0.00 0.00 69 1014.4
20260905013503 85 266 1.0 2.0 0.00 0.00 0.00 68 1014.5
20260905013005 85 28 2.0 2.0 0.00 0.00 0.00 67 1014.4
20260905012003 85 233 2.0 5.0 0.00 0.00 0.00 65 1014.7
20260905011504 85 32 2.0 2.0 0.00 0.00 0.00 64 1014.7
20260905011003 85 38 1.0 2.0 0.00 0.00 0.00 69 1014.3
20260905010505 85 87 1.0 1.0 0.00 0.00 0.00 67 1013.9
20260905005504 86 89 1.0 1.0 0.00 0.00 0.00 64 1013.1
20260905005004 86 19 1.0 2.0 0.00 0.00 0.00 64 1012.7
20260905004504 87 55 1.0 2.0 0.00 0.00 0.00 64 1012.3
20260905004005 87 304 1.0 3.0 0.00 0.00 0.00 64 1012.0
20260905003504 87 351 1.0 5.0 0.00 0.00 0.00 64 1011.9
20260905003004 87 293 1.0 3.0 0.00 0.00 0.00 64 1012.0
20260905002504 88 315 1.0 3.0 0.00 0.00 0.00 63 1012.0
20260905002004 88 101 1.0 6.0 0.00 0.00 0.00 63 1012.1
20260905001005 88 37 2.0 7.0 0.00 0.00 0.00 64 1012.2
20260905000505 88 206 2.0 6.0 0.00 0.00 0.00 66 1012.2
20260905000004 88 319 2.0 3.0 0.00 0.00 0.00 65 1012.2
20260904235504 88 54 1.0 1.0 0.00 0.00 0.00 65 1012.1
20260904235007 88 224 1.0 2.0 0.00 0.00 0.00 65 1012.2
20260904234505 88 259 0.0 1.0 0.00 0.00 0.00 66 1012.3
20260904234004 88 22 0.0 1.0 0.00 0.00 0.00 65 1012.3
20260904233508 88 284 1.0 1.0 0.00 0.00 0.00 66 1012.3
20260904232503 88 253 0.0 1.0 0.00 0.00 0.00 66 1012.5
20260904232004 88 241 0.0 1.0 0.00 0.00 0.00 66 1012.5
20260904231004 89 359 0.0 1.0 0.00 0.00 0.00 66 1012.3
20260904230505 89 276 0.0 1.0 0.00 0.00 0.00 66 1012.3
20260904230004 89 44 0.0 1.0 0.00 0.00 0.00 66 1012.3
20260904225503 89 338 1.0 1.0 0.00 0.00 0.00 67 1012.2
20260904225004 89 316 0.0 1.0 0.00 0.00 0.00 65 1011.9
20260904224504 89 232 0.0 2.0 0.00 0.00 0.00 66 1011.8
20260904224004 90 235 1.0 2.0 0.00 0.00 0.00 66 1012.0
20260904223504 90 241 0.0 1.0 0.00 0.00 0.00 65 1012.2
20260904223005 91 233 0.0 1.0 0.00 0.00 0.00 65 1012.1
20260904222504 91 324 0.0 1.0 0.00 0.00 0.00 64 1012.2
20260904221003 91 268 0.0 1.0 0.00 0.00 0.00 63 1012.0
20260904220503 91 12 0.0 1.0 0.00 0.00 0.00 63 1012.1
20260904220004 91 192 0.0 2.0 0.00 0.00 0.00 63 1012.1
20260904215504 92 329 0.0 1.0 0.00 0.00 0.00 63 1012.3
20260904215003 92 225 0.0 1.0 0.00 0.00 0.00 62 1012.3
20260904214503 92 317 0.0 1.0 0.00 0.00 0.00 62 1012.4
20260904213503 93 296 0.0 1.0 0.00 0.00 0.00 60 1012.3
20260904213005 93 321 0.0 2.0 0.00 0.00 0.00 60 1012.3
20260904212505 93 171 0.0 2.0 0.00 0.00 0.00 59 1012.3
20260904212003 94 349 0.0 1.0 0.00 0.00 0.00 58 1012.3
20260904211504 94 204 0.0 2.0 0.00 0.00 0.00 56 1012.2
20260904211004 94 279 1.0 2.0 0.00 0.00 0.00 57 1012.2
20260904210504 95 180 1.0 2.0 0.00 0.00 0.00 56 1012.1
20260904210003 95 305 0.0 2.0 0.00 0.00 0.00 55 1012.0
20260904205503 96 223 1.0 3.0 0.00 0.00 0.00 54 1012.0
20260904205004 96 249 1.0 3.0 0.00 0.00 0.00 53 1011.7
20260904204503 96 246 1.0 2.0 0.00 0.00 0.00 55 1011.7
20260904204004 96 201 2.0 6.0 0.00 0.00 0.00 54 1011.6
20260904203504 96 242 1.0 2.0 0.00 0.00 0.00 55 1011.7
20260904203004 96 160 0.0 3.0 0.00 0.00 0.00 55 1012.0
20260904202503 96 185 1.0 3.0 0.00 0.00 0.00 55 1012.1
20260904202003 96 94 2.0 3.0 0.00 0.00 0.00 54 1012.1
20260904201505 96 292 1.0 2.0 0.00 0.00 0.00 54 1012.2
20260904201005 96 260 2.0 3.0 0.00 0.00 0.00 55 1012.2
20260904200504 97 210 1.0 3.0 0.00 0.00 0.00 54 1012.3
20260904200004 97 176 1.0 2.0 0.00 0.00 0.00 55 1012.5
20260904195503 97 192 1.0 3.0 0.00 0.00 0.00 54 1012.6
20260904195004 98 184 1.0 3.0 0.00 0.00 0.00 53 1012.7
20260904194503 98 168 1.0 3.0 0.00 0.00 0.00 52 1012.9
20260904194004 98 159 1.0 2.0 0.00 0.00 0.00 52 1012.8
20260904193004 98 158 1.0 3.0 0.00 0.00 0.00 48 1013.0
20260904192503 97 166 1.0 2.0 0.00 0.00 0.00 50 1013.0
20260904192003 97 160 2.0 5.0 0.00 0.00 0.00 54 1012.8
20260904190003 98 150 1.0 3.0 0.00 0.00 0.00 50 1013.3
20260904185503 98 174 1.0 3.0 0.00 0.00 0.00 51 1013.3
20260904185004 98 137 2.0 5.0 0.00 0.00 0.00 52 1013.5
20260904184503 98 161 2.0 2.0 0.00 0.00 0.00 49 1013.6
20260904183503 98 270 1.0 3.0 0.00 0.00 0.00 51 1013.7
20260904183004 98 133 2.0 3.0 0.00 0.00 0.00 50 1013.8
20260904182503 98 315 2.0 3.0 0.00 0.00 0.00 52 1013.8
20260904182005 97 331 0.0 2.0 0.00 0.00 0.00 52 1013.9
20260904181504 97 62 1.0 3.0 0.00 0.00 0.00 52 1014.0
20260904181003 98 179 1.0 3.0 0.00 0.00 0.00 52 1014.0
20260904180504 98 133 2.0 5.0 0.00 0.00 0.00 52 1014.0
20260904175503 97 240 1.0 3.0 0.00 0.00 0.00 54 1014.1
20260904174503 97 294 1.0 3.0 0.00 0.00 0.00 55 1014.3
20260904174004 98 279 1.0 3.0 0.00 0.00 0.00 53 1014.3
20260904173503 97 248 1.0 3.0 0.00 0.00 0.00 55 1014.3
20260904173004 97 240 1.0 2.0 0.00 0.00 0.00 54 1014.4
20260904172505 97 112 1.0 3.0 0.00 0.00 0.00 56 1014.5
20260904172004 97 244 0.0 2.0 0.00 0.00 0.00 56 1014.4
20260904171504 97 296 1.0 2.0 0.00 0.00 0.00 56 1014.4
20260904171004 97 216 0.0 2.0 0.00 0.00 0.00 56 1014.4
20260904170503 97 267 1.0 2.0 0.00 0.00 0.00 55 1014.4
20260904170005 96 68 1.0 3.0 0.00 0.00 0.00 55 1014.5
20260904165006 96 145 1.0 3.0 0.00 0.00 0.00 58 1014.7
20260904164503 96 189 1.0 3.0 0.00 0.00 0.00 57 1014.8
20260904164004 95 122 1.0 2.0 0.00 0.00 0.00 57 1014.9
20260904163504 94 339 1.0 2.0 0.00 0.00 0.00 60 1015.0
20260904163004 94 9 1.0 5.0 0.00 0.00 0.00 59 1015.0
20260904162503 94 163 2.0 5.0 0.00 0.00 0.00 60 1015.1
20260904161504 94 18 1.0 3.0 0.00 0.00 0.00 60 1015.3
20260904161004 94 53 1.0 3.0 0.00 0.00 0.00 59 1015.3
20260904160503 93 50 1.0 3.0 0.00 0.00 0.00 61 1015.4
20260904160003 93 287 1.0 2.0 0.00 0.00 0.00 61 1015.4
20260904155504 93 314 1.0 3.0 0.00 0.00 0.00 62 1015.4
20260904155004 92 7 0.0 5.0 0.00 0.00 0.00 62 1015.5
20260904154005 92 112 1.0 3.0 0.00 0.00 0.00 62 1015.6
20260904153504 92 168 1.0 3.0 0.00 0.00 0.00 62 1015.5
20260904153004 91 145 1.0 3.0 0.00 0.00 0.00 64 1015.6
20260904152503 91 186 2.0 3.0 0.00 0.00 0.00 64 1015.6
20260904152003 90 158 1.0 3.0 0.00 0.00 0.00 66 1015.6
20260904151004 90 74 1.0 2.0 0.00 0.00 0.00 66 1015.6
20260904150004 89 107 2.0 3.0 0.00 0.00 0.00 66 1015.6
20260904145505 89 190 1.0 3.0 0.00 0.00 0.00 66 1015.6
20260904145004 89 128 1.0 3.0 0.00 0.00 0.00 67 1015.7
20260904144504 89 29 1.0 3.0 0.00 0.00 0.00 67 1015.7
20260904144003 88 177 2.0 3.0 0.00 0.00 0.00 69 1015.7
20260904143503 88 175 1.0 2.0 0.00 0.00 0.00 68 1015.7
20260904143003 87 313 1.0 3.0 0.00 0.00 0.00 70 1015.7
20260904142503 87 202 2.0 5.0 0.00 0.00 0.00 70 1015.7
20260904142004 87 296 1.0 3.0 0.00 0.00 0.00 71 1015.7
20260904141504 86 267 2.0 6.0 0.00 0.00 0.00 72 1015.7
20260904141003 86 161 1.0 3.0 0.00 0.00 0.00 72 1015.6
20260904140505 85 164 1.0 3.0 0.00 0.00 0.00 74 1015.6
20260904135504 84 67 2.0 3.0 0.00 0.00 0.00 75 1015.7
20260904135004 84 194 0.0 2.0 0.00 0.00 0.00 76 1015.8
20260904134504 84 156 2.0 2.0 0.00 0.00 0.00 77 1015.8
20260904134004 83 68 2.0 3.0 0.00 0.00 0.00 77 1015.8
20260904133503 83 154 2.0 5.0 0.00 0.00 0.00 78 1015.8
20260904133004 83 94 1.0 3.0 0.00 0.00 0.00 78 1015.8
20260904132503 82 50 0.0 3.0 0.00 0.00 0.00 79 1015.8